Zurück zum Katalog

GLOBALSTAR M081

AktivKommunikationLEO
NORAD 37743·PAYLOAD·🇺🇸 United States

Gestartet Jul 13, 2011 von Baikonur Cosmodrome

Loading…

Nächste Überflüge (nächste 24 Stunden)

TLE

AktuellSource: Space-Track

Epoche: Sep 14, 2026, 13:24 UTC

1 37743U 11033E   26257.55846372 -.00000092  00000-0  65310-4 0  9995
2 37743  51.9952 283.5370 0000266 114.6979  51.8263 12.62266271701228

Verfolge GLOBALSTAR M081 in Echtzeit mit AllMySat

Download on the App Store